Index of /20260428/WXO-DD/model_rdps/10km/00/027
Name Last modified Size Description
Parent Directory -
20260428T00Z_MSC_RDPS_AbsoluteVorticity_IsbL-0250_RLatLon0.09_PT027H.grib2 2026-04-28 02:49 632K
20260428T00Z_MSC_RDPS_AbsoluteVorticity_IsbL-0500_RLatLon0.09_PT027H.grib2 2026-04-28 02:49 575K
20260428T00Z_MSC_RDPS_AbsoluteVorticity_IsbL-0700_RLatLon0.09_PT027H.grib2 2026-04-28 02:49 617K
20260428T00Z_MSC_RDPS_AbsoluteVorticity_IsbL-0850_RLatLon0.09_PT027H.grib2 2026-04-28 02:49 770K
20260428T00Z_MSC_RDPS_AirTemp_AGL-120m_RLatLon0.09_PT027H.grib2 2026-04-28 02:49 382K
20260428T00Z_MSC_RDPS_AirTemp_AGL-2m_RLatLon0.09_PT027H.grib2 2026-04-28 02:49 618K
20260428T00Z_MSC_RDPS_AirTemp_AGL-40m_RLatLon0.09_PT027H.grib2 2026-04-28 02:49 395K
20260428T00Z_MSC_RDPS_AirTemp_AGL-80m_RLatLon0.09_PT027H.grib2 2026-04-28 02:49 387K
20260428T00Z_MSC_RDPS_AirTemp_IsbL-0001_RLatLon0.09_PT027H.grib2 2026-04-28 02:49 258K
20260428T00Z_MSC_RDPS_AirTemp_IsbL-0005_RLatLon0.09_PT027H.grib2 2026-04-28 02:49 296K
20260428T00Z_MSC_RDPS_AirTemp_IsbL-0010_RLatLon0.09_PT027H.grib2 2026-04-28 02:49 306K
20260428T00Z_MSC_RDPS_AirTemp_IsbL-0020_RLatLon0.09_PT027H.grib2 2026-04-28 02:49 318K
20260428T00Z_MSC_RDPS_AirTemp_IsbL-0030_RLatLon0.09_PT027H.grib2 2026-04-28 02:49 340K
20260428T00Z_MSC_RDPS_AirTemp_IsbL-0050_RLatLon0.09_PT027H.grib2 2026-04-28 02:49 317K
20260428T00Z_MSC_RDPS_AirTemp_IsbL-0100_RLatLon0.09_PT027H.grib2 2026-04-28 02:49 431K
20260428T00Z_MSC_RDPS_AirTemp_IsbL-0150_RLatLon0.09_PT027H.grib2 2026-04-28 02:49 433K
20260428T00Z_MSC_RDPS_AirTemp_IsbL-0175_RLatLon0.09_PT027H.grib2 2026-04-28 02:49 421K
20260428T00Z_MSC_RDPS_AirTemp_IsbL-0200_RLatLon0.09_PT027H.grib2 2026-04-28 02:49 423K
20260428T00Z_MSC_RDPS_AirTemp_IsbL-0225_RLatLon0.09_PT027H.grib2 2026-04-28 02:49 426K
20260428T00Z_MSC_RDPS_AirTemp_IsbL-0250_RLatLon0.09_PT027H.grib2 2026-04-28 02:49 436K
20260428T00Z_MSC_RDPS_AirTemp_IsbL-0275_RLatLon0.09_PT027H.grib2 2026-04-28 02:49 416K
20260428T00Z_MSC_RDPS_AirTemp_IsbL-0300_RLatLon0.09_PT027H.grib2 2026-04-28 02:49 421K
20260428T00Z_MSC_RDPS_AirTemp_IsbL-0350_RLatLon0.09_PT027H.grib2 2026-04-28 02:49 431K
20260428T00Z_MSC_RDPS_AirTemp_IsbL-0400_RLatLon0.09_PT027H.grib2 2026-04-28 02:49 432K
20260428T00Z_MSC_RDPS_AirTemp_IsbL-0450_RLatLon0.09_PT027H.grib2 2026-04-28 02:49 439K
20260428T00Z_MSC_RDPS_AirTemp_IsbL-0500_RLatLon0.09_PT027H.grib2 2026-04-28 02:49 413K
20260428T00Z_MSC_RDPS_AirTemp_IsbL-0550_RLatLon0.09_PT027H.grib2 2026-04-28 02:49 431K
20260428T00Z_MSC_RDPS_AirTemp_IsbL-0600_RLatLon0.09_PT027H.grib2 2026-04-28 02:49 447K
20260428T00Z_MSC_RDPS_AirTemp_IsbL-0650_RLatLon0.09_PT027H.grib2 2026-04-28 02:49 459K
20260428T00Z_MSC_RDPS_AirTemp_IsbL-0700_RLatLon0.09_PT027H.grib2 2026-04-28 02:49 375K
20260428T00Z_MSC_RDPS_AirTemp_IsbL-0750_RLatLon0.09_PT027H.grib2 2026-04-28 02:49 406K
20260428T00Z_MSC_RDPS_AirTemp_IsbL-0800_RLatLon0.09_PT027H.grib2 2026-04-28 02:49 447K
20260428T00Z_MSC_RDPS_AirTemp_IsbL-0850_RLatLon0.09_PT027H.grib2 2026-04-28 02:49 494K
20260428T00Z_MSC_RDPS_AirTemp_IsbL-0875_RLatLon0.09_PT027H.grib2 2026-04-28 02:49 513K
20260428T00Z_MSC_RDPS_AirTemp_IsbL-0900_RLatLon0.09_PT027H.grib2 2026-04-28 02:49 521K
20260428T00Z_MSC_RDPS_AirTemp_IsbL-0925_RLatLon0.09_PT027H.grib2 2026-04-28 02:49 519K
20260428T00Z_MSC_RDPS_AirTemp_IsbL-0950_RLatLon0.09_PT027H.grib2 2026-04-28 02:49 519K
20260428T00Z_MSC_RDPS_AirTemp_IsbL-0970_RLatLon0.09_PT027H.grib2 2026-04-28 02:49 510K
20260428T00Z_MSC_RDPS_AirTemp_IsbL-0985_RLatLon0.09_PT027H.grib2 2026-04-28 02:49 498K
20260428T00Z_MSC_RDPS_AirTemp_IsbL-1000_RLatLon0.09_PT027H.grib2 2026-04-28 02:49 480K
20260428T00Z_MSC_RDPS_AirTemp_IsbL-1015_RLatLon0.09_PT027H.grib2 2026-04-28 02:49 494K
20260428T00Z_MSC_RDPS_Albedo_Sfc_RLatLon0.09_PT027H.grib2 2026-04-28 02:49 164K
20260428T00Z_MSC_RDPS_CAPE_Sfc_RLatLon0.09_PT027H.grib2 2026-04-28 02:49 1.6M
20260428T00Z_MSC_RDPS_CIN_Sfc_RLatLon0.09_PT027H.grib2 2026-04-28 02:49 1.1M
20260428T00Z_MSC_RDPS_CloudWater_EAtm_RLatLon0.09_PT027H.grib2 2026-04-28 02:49 220K
20260428T00Z_MSC_RDPS_ConvectivePrecip-Accum_Sfc_RLatLon0.09_PT027H.grib2 2026-04-28 02:49 897K
20260428T00Z_MSC_RDPS_DewPointDepression_AGL-2m_RLatLon0.09_PT027H.grib2 2026-04-28 02:49 394K
20260428T00Z_MSC_RDPS_DewPointDepression_IsbL-0001_RLatLon0.09_PT027H.grib2 2026-04-28 02:49 193
20260428T00Z_MSC_RDPS_DewPointDepression_IsbL-0005_RLatLon0.09_PT027H.grib2 2026-04-28 02:49 193
20260428T00Z_MSC_RDPS_DewPointDepression_IsbL-0010_RLatLon0.09_PT027H.grib2 2026-04-28 02:49 193
20260428T00Z_MSC_RDPS_DewPointDepression_IsbL-0020_RLatLon0.09_PT027H.grib2 2026-04-28 02:49 193
20260428T00Z_MSC_RDPS_DewPointDepression_IsbL-0030_RLatLon0.09_PT027H.grib2 2026-04-28 02:49 193
20260428T00Z_MSC_RDPS_DewPointDepression_IsbL-0050_RLatLon0.09_PT027H.grib2 2026-04-28 02:49 84K
20260428T00Z_MSC_RDPS_DewPointDepression_IsbL-0100_RLatLon0.09_PT027H.grib2 2026-04-28 02:49 132K
20260428T00Z_MSC_RDPS_DewPointDepression_IsbL-0150_RLatLon0.09_PT027H.grib2 2026-04-28 02:49 154K
20260428T00Z_MSC_RDPS_DewPointDepression_IsbL-0175_RLatLon0.09_PT027H.grib2 2026-04-28 02:49 180K
20260428T00Z_MSC_RDPS_DewPointDepression_IsbL-0200_RLatLon0.09_PT027H.grib2 2026-04-28 02:49 216K
20260428T00Z_MSC_RDPS_DewPointDepression_IsbL-0225_RLatLon0.09_PT027H.grib2 2026-04-28 02:49 267K
20260428T00Z_MSC_RDPS_DewPointDepression_IsbL-0250_RLatLon0.09_PT027H.grib2 2026-04-28 02:49 304K
20260428T00Z_MSC_RDPS_DewPointDepression_IsbL-0275_RLatLon0.09_PT027H.grib2 2026-04-28 02:49 312K
20260428T00Z_MSC_RDPS_DewPointDepression_IsbL-0300_RLatLon0.09_PT027H.grib2 2026-04-28 02:49 330K
20260428T00Z_MSC_RDPS_DewPointDepression_IsbL-0350_RLatLon0.09_PT027H.grib2 2026-04-28 02:49 335K
20260428T00Z_MSC_RDPS_DewPointDepression_IsbL-0400_RLatLon0.09_PT027H.grib2 2026-04-28 02:49 344K
20260428T00Z_MSC_RDPS_DewPointDepression_IsbL-0450_RLatLon0.09_PT027H.grib2 2026-04-28 02:49 353K
20260428T00Z_MSC_RDPS_DewPointDepression_IsbL-0500_RLatLon0.09_PT027H.grib2 2026-04-28 02:49 360K
20260428T00Z_MSC_RDPS_DewPointDepression_IsbL-0550_RLatLon0.09_PT027H.grib2 2026-04-28 02:49 371K
20260428T00Z_MSC_RDPS_DewPointDepression_IsbL-0600_RLatLon0.09_PT027H.grib2 2026-04-28 02:49 378K
20260428T00Z_MSC_RDPS_DewPointDepression_IsbL-0650_RLatLon0.09_PT027H.grib2 2026-04-28 02:49 381K
20260428T00Z_MSC_RDPS_DewPointDepression_IsbL-0700_RLatLon0.09_PT027H.grib2 2026-04-28 02:49 395K
20260428T00Z_MSC_RDPS_DewPointDepression_IsbL-0750_RLatLon0.09_PT027H.grib2 2026-04-28 02:49 414K
20260428T00Z_MSC_RDPS_DewPointDepression_IsbL-0800_RLatLon0.09_PT027H.grib2 2026-04-28 02:49 443K
20260428T00Z_MSC_RDPS_DewPointDepression_IsbL-0850_RLatLon0.09_PT027H.grib2 2026-04-28 02:49 467K
20260428T00Z_MSC_RDPS_DewPointDepression_IsbL-0875_RLatLon0.09_PT027H.grib2 2026-04-28 02:49 468K
20260428T00Z_MSC_RDPS_DewPointDepression_IsbL-0900_RLatLon0.09_PT027H.grib2 2026-04-28 02:49 462K
20260428T00Z_MSC_RDPS_DewPointDepression_IsbL-0925_RLatLon0.09_PT027H.grib2 2026-04-28 02:49 451K
20260428T00Z_MSC_RDPS_DewPointDepression_IsbL-0950_RLatLon0.09_PT027H.grib2 2026-04-28 02:49 441K
20260428T00Z_MSC_RDPS_DewPointDepression_IsbL-0970_RLatLon0.09_PT027H.grib2 2026-04-28 02:49 428K
20260428T00Z_MSC_RDPS_DewPointDepression_IsbL-0985_RLatLon0.09_PT027H.grib2 2026-04-28 02:49 421K
20260428T00Z_MSC_RDPS_DewPointDepression_IsbL-1000_RLatLon0.09_PT027H.grib2 2026-04-28 02:49 414K
20260428T00Z_MSC_RDPS_DewPointDepression_IsbL-1015_RLatLon0.09_PT027H.grib2 2026-04-28 02:49 407K
20260428T00Z_MSC_RDPS_DewPoint_AGL-2m_RLatLon0.09_PT027H.grib2 2026-04-28 02:49 302K
20260428T00Z_MSC_RDPS_DownwardLongwaveRadiationFlux-Accum_Sfc_RLatLon0.09_PT027H.grib2 2026-04-28 02:49 450K
20260428T00Z_MSC_RDPS_DownwardShortwaveRadiationFlux-Accum_NTAtm_RLatLon0.09_PT027H.grib2 2026-04-28 02:49 96K
20260428T00Z_MSC_RDPS_DownwardShortwaveRadiationFlux-Accum_Sfc_RLatLon0.09_PT027H.grib2 2026-04-28 02:49 651K
20260428T00Z_MSC_RDPS_FreezingRain-Accum1h_Sfc_RLatLon0.09_PT027H.grib2 2026-04-28 02:49 21K
20260428T00Z_MSC_RDPS_FreezingRain-Accum3h_Sfc_RLatLon0.09_PT027H.grib2 2026-04-28 02:49 23K
20260428T00Z_MSC_RDPS_FreezingRain-Accum_Sfc_RLatLon0.09_PT027H.grib2 2026-04-28 02:49 122K
20260428T00Z_MSC_RDPS_GeopotentialHeight_IsbL-0001_RLatLon0.09_PT027H.grib2 2026-04-28 02:49 238K
20260428T00Z_MSC_RDPS_GeopotentialHeight_IsbL-0005_RLatLon0.09_PT027H.grib2 2026-04-28 02:49 336K
20260428T00Z_MSC_RDPS_GeopotentialHeight_IsbL-0010_RLatLon0.09_PT027H.grib2 2026-04-28 02:49 337K
20260428T00Z_MSC_RDPS_GeopotentialHeight_IsbL-0020_RLatLon0.09_PT027H.grib2 2026-04-28 02:49 303K
20260428T00Z_MSC_RDPS_GeopotentialHeight_IsbL-0030_RLatLon0.09_PT027H.grib2 2026-04-28 02:49 304K
20260428T00Z_MSC_RDPS_GeopotentialHeight_IsbL-0050_RLatLon0.09_PT027H.grib2 2026-04-28 02:49 339K
20260428T00Z_MSC_RDPS_GeopotentialHeight_IsbL-0100_RLatLon0.09_PT027H.grib2 2026-04-28 02:49 288K
20260428T00Z_MSC_RDPS_GeopotentialHeight_IsbL-0150_RLatLon0.09_PT027H.grib2 2026-04-28 02:49 230K
20260428T00Z_MSC_RDPS_GeopotentialHeight_IsbL-0175_RLatLon0.09_PT027H.grib2 2026-04-28 02:49 264K
20260428T00Z_MSC_RDPS_GeopotentialHeight_IsbL-0200_RLatLon0.09_PT027H.grib2 2026-04-28 02:49 267K
20260428T00Z_MSC_RDPS_GeopotentialHeight_IsbL-0225_RLatLon0.09_PT027H.grib2 2026-04-28 02:49 268K
20260428T00Z_MSC_RDPS_GeopotentialHeight_IsbL-0250_RLatLon0.09_PT027H.grib2 2026-04-28 02:49 268K
20260428T00Z_MSC_RDPS_GeopotentialHeight_IsbL-0275_RLatLon0.09_PT027H.grib2 2026-04-28 02:49 267K
20260428T00Z_MSC_RDPS_GeopotentialHeight_IsbL-0300_RLatLon0.09_PT027H.grib2 2026-04-28 02:49 268K
20260428T00Z_MSC_RDPS_GeopotentialHeight_IsbL-0350_RLatLon0.09_PT027H.grib2 2026-04-28 02:49 233K
20260428T00Z_MSC_RDPS_GeopotentialHeight_IsbL-0400_RLatLon0.09_PT027H.grib2 2026-04-28 02:49 230K
20260428T00Z_MSC_RDPS_GeopotentialHeight_IsbL-0450_RLatLon0.09_PT027H.grib2 2026-04-28 02:49 298K
20260428T00Z_MSC_RDPS_GeopotentialHeight_IsbL-0500_RLatLon0.09_PT027H.grib2 2026-04-28 02:49 293K
20260428T00Z_MSC_RDPS_GeopotentialHeight_IsbL-0550_RLatLon0.09_PT027H.grib2 2026-04-28 02:49 289K
20260428T00Z_MSC_RDPS_GeopotentialHeight_IsbL-0600_RLatLon0.09_PT027H.grib2 2026-04-28 02:49 285K
20260428T00Z_MSC_RDPS_GeopotentialHeight_IsbL-0650_RLatLon0.09_PT027H.grib2 2026-04-28 02:49 255K
20260428T00Z_MSC_RDPS_GeopotentialHeight_IsbL-0700_RLatLon0.09_PT027H.grib2 2026-04-28 02:49 254K
20260428T00Z_MSC_RDPS_GeopotentialHeight_IsbL-0750_RLatLon0.09_PT027H.grib2 2026-04-28 02:49 337K
20260428T00Z_MSC_RDPS_GeopotentialHeight_IsbL-0800_RLatLon0.09_PT027H.grib2 2026-04-28 02:49 342K
20260428T00Z_MSC_RDPS_GeopotentialHeight_IsbL-0850_RLatLon0.09_PT027H.grib2 2026-04-28 02:49 351K
20260428T00Z_MSC_RDPS_GeopotentialHeight_IsbL-0875_RLatLon0.09_PT027H.grib2 2026-04-28 02:49 354K
20260428T00Z_MSC_RDPS_GeopotentialHeight_IsbL-0900_RLatLon0.09_PT027H.grib2 2026-04-28 02:49 359K
20260428T00Z_MSC_RDPS_GeopotentialHeight_IsbL-0925_RLatLon0.09_PT027H.grib2 2026-04-28 02:49 361K
20260428T00Z_MSC_RDPS_GeopotentialHeight_IsbL-0950_RLatLon0.09_PT027H.grib2 2026-04-28 02:49 366K
20260428T00Z_MSC_RDPS_GeopotentialHeight_IsbL-0970_RLatLon0.09_PT027H.grib2 2026-04-28 02:49 371K
20260428T00Z_MSC_RDPS_GeopotentialHeight_IsbL-0985_RLatLon0.09_PT027H.grib2 2026-04-28 02:49 379K
20260428T00Z_MSC_RDPS_GeopotentialHeight_IsbL-1000_RLatLon0.09_PT027H.grib2 2026-04-28 02:49 389K
20260428T00Z_MSC_RDPS_GeopotentialHeight_IsbL-1015_RLatLon0.09_PT027H.grib2 2026-04-28 02:49 402K
20260428T00Z_MSC_RDPS_Humidex_Sfc_RLatLon0.09_PT027H.grib2 2026-04-28 02:49 2.4M
20260428T00Z_MSC_RDPS_IcePellets-Accum1h_Sfc_RLatLon0.09_PT027H.grib2 2026-04-28 02:49 4.7K
20260428T00Z_MSC_RDPS_IcePellets-Accum3h_Sfc_RLatLon0.09_PT027H.grib2 2026-04-28 02:49 6.5K
20260428T00Z_MSC_RDPS_IcePellets-Accum_Sfc_RLatLon0.09_PT027H.grib2 2026-04-28 02:49 19K
20260428T00Z_MSC_RDPS_KIndex_Sfc_RLatLon0.09_PT027H.grib2 2026-04-28 02:49 2.5M
20260428T00Z_MSC_RDPS_LatentHeatNetFlux_Sfc_RLatLon0.09_PT027H.grib2 2026-04-28 02:49 402K
20260428T00Z_MSC_RDPS_LiftedIndex-MU-VT_IsbL-0500_RLatLon0.09_PT027H.grib2 2026-04-28 02:49 2.4M
20260428T00Z_MSC_RDPS_NetLongwaveRadiationFlux-Accum_Sfc_RLatLon0.09_PT027H.grib2 2026-04-28 02:49 599K
20260428T00Z_MSC_RDPS_NetShortwaveRadiationFlux-Accum_Sfc_RLatLon0.09_PT027H.grib2 2026-04-28 02:49 645K
20260428T00Z_MSC_RDPS_PlanetaryBoundaryLayerHeight_Sfc_RLatLon0.09_PT027H.grib2 2026-04-28 02:49 1.1M
20260428T00Z_MSC_RDPS_Precip-Accum1h_Sfc_RLatLon0.09_PT027H.grib2 2026-04-28 02:49 1.2M
20260428T00Z_MSC_RDPS_Precip-Accum3h_Sfc_RLatLon0.09_PT027H.grib2 2026-04-28 02:49 1.3M
20260428T00Z_MSC_RDPS_Precip-Accum_Sfc_RLatLon0.09_PT027H.grib2 2026-04-28 02:49 1.8M
20260428T00Z_MSC_RDPS_PrecipRate_Sfc_RLatLon0.09_PT027H.grib2 2026-04-28 02:49 157K
20260428T00Z_MSC_RDPS_PrecipType-Instant_Sfc_RLatLon0.09_PT027H.grib2 2026-04-28 02:49 534K
20260428T00Z_MSC_RDPS_Pressure-Trend3h_Sfc_RLatLon0.09_PT027H.grib2 2026-04-28 02:49 1.2M
20260428T00Z_MSC_RDPS_Pressure_MSL_RLatLon0.09_PT027H.grib2 2026-04-28 02:49 323K
20260428T00Z_MSC_RDPS_Pressure_PVU-1.5_RLatLon0.09_PT027H.grib2 2026-04-28 02:49 2.3M
20260428T00Z_MSC_RDPS_Pressure_PVU-1_RLatLon0.09_PT027H.grib2 2026-04-28 02:49 2.4M
20260428T00Z_MSC_RDPS_Pressure_PVU-2_RLatLon0.09_PT027H.grib2 2026-04-28 02:49 2.4M
20260428T00Z_MSC_RDPS_Pressure_Sfc_RLatLon0.09_PT027H.grib2 2026-04-28 02:49 499K
20260428T00Z_MSC_RDPS_RadiativeTemp_Sfc_RLatLon0.09_PT027H.grib2 2026-04-28 02:49 299K
20260428T00Z_MSC_RDPS_Rain-Accum1h_Sfc_RLatLon0.09_PT027H.grib2 2026-04-28 02:49 505K
20260428T00Z_MSC_RDPS_Rain-Accum3h_Sfc_RLatLon0.09_PT027H.grib2 2026-04-28 02:49 585K
20260428T00Z_MSC_RDPS_Rain-Accum_Sfc_RLatLon0.09_PT027H.grib2 2026-04-28 02:49 1.4M
20260428T00Z_MSC_RDPS_RelativeHumidity_AGL-2m_RLatLon0.09_PT027H.grib2 2026-04-28 02:49 1.0M
20260428T00Z_MSC_RDPS_RelativeHumidity_IsbL-0010_RLatLon0.09_PT027H.grib2 2026-04-28 02:49 624K
20260428T00Z_MSC_RDPS_RelativeHumidity_IsbL-0020_RLatLon0.09_PT027H.grib2 2026-04-28 02:49 649K
20260428T00Z_MSC_RDPS_RelativeHumidity_IsbL-0030_RLatLon0.09_PT027H.grib2 2026-04-28 02:49 608K
20260428T00Z_MSC_RDPS_RelativeHumidity_IsbL-0050_RLatLon0.09_PT027H.grib2 2026-04-28 02:49 325K
20260428T00Z_MSC_RDPS_RelativeHumidity_IsbL-0100_RLatLon0.09_PT027H.grib2 2026-04-28 02:49 282K
20260428T00Z_MSC_RDPS_RelativeHumidity_IsbL-0150_RLatLon0.09_PT027H.grib2 2026-04-28 02:49 425K
20260428T00Z_MSC_RDPS_RelativeHumidity_IsbL-0175_RLatLon0.09_PT027H.grib2 2026-04-28 02:49 487K
20260428T00Z_MSC_RDPS_RelativeHumidity_IsbL-0200_RLatLon0.09_PT027H.grib2 2026-04-28 02:49 553K
20260428T00Z_MSC_RDPS_RelativeHumidity_IsbL-0225_RLatLon0.09_PT027H.grib2 2026-04-28 02:49 621K
20260428T00Z_MSC_RDPS_RelativeHumidity_IsbL-0250_RLatLon0.09_PT027H.grib2 2026-04-28 02:49 687K
20260428T00Z_MSC_RDPS_RelativeHumidity_IsbL-0275_RLatLon0.09_PT027H.grib2 2026-04-28 02:49 720K
20260428T00Z_MSC_RDPS_RelativeHumidity_IsbL-0300_RLatLon0.09_PT027H.grib2 2026-04-28 02:49 765K
20260428T00Z_MSC_RDPS_RelativeHumidity_IsbL-0350_RLatLon0.09_PT027H.grib2 2026-04-28 02:49 783K
20260428T00Z_MSC_RDPS_RelativeHumidity_IsbL-0400_RLatLon0.09_PT027H.grib2 2026-04-28 02:49 795K
20260428T00Z_MSC_RDPS_RelativeHumidity_IsbL-0450_RLatLon0.09_PT027H.grib2 2026-04-28 02:49 802K
20260428T00Z_MSC_RDPS_RelativeHumidity_IsbL-0500_RLatLon0.09_PT027H.grib2 2026-04-28 02:49 808K
20260428T00Z_MSC_RDPS_RelativeHumidity_IsbL-0550_RLatLon0.09_PT027H.grib2 2026-04-28 02:49 823K
20260428T00Z_MSC_RDPS_RelativeHumidity_IsbL-0600_RLatLon0.09_PT027H.grib2 2026-04-28 02:49 851K
20260428T00Z_MSC_RDPS_RelativeHumidity_IsbL-0650_RLatLon0.09_PT027H.grib2 2026-04-28 02:49 848K
20260428T00Z_MSC_RDPS_RelativeHumidity_IsbL-0700_RLatLon0.09_PT027H.grib2 2026-04-28 02:49 884K
20260428T00Z_MSC_RDPS_RelativeHumidity_IsbL-0750_RLatLon0.09_PT027H.grib2 2026-04-28 02:49 917K
20260428T00Z_MSC_RDPS_RelativeHumidity_IsbL-0800_RLatLon0.09_PT027H.grib2 2026-04-28 02:49 1.0M
20260428T00Z_MSC_RDPS_RelativeHumidity_IsbL-0850_RLatLon0.09_PT027H.grib2 2026-04-28 02:49 1.0M
20260428T00Z_MSC_RDPS_RelativeHumidity_IsbL-0875_RLatLon0.09_PT027H.grib2 2026-04-28 02:49 1.0M
20260428T00Z_MSC_RDPS_RelativeHumidity_IsbL-0900_RLatLon0.09_PT027H.grib2 2026-04-28 02:49 1.1M
20260428T00Z_MSC_RDPS_RelativeHumidity_IsbL-0925_RLatLon0.09_PT027H.grib2 2026-04-28 02:49 1.1M
20260428T00Z_MSC_RDPS_RelativeHumidity_IsbL-0950_RLatLon0.09_PT027H.grib2 2026-04-28 02:49 1.1M
20260428T00Z_MSC_RDPS_RelativeHumidity_IsbL-0970_RLatLon0.09_PT027H.grib2 2026-04-28 02:49 1.0M
20260428T00Z_MSC_RDPS_RelativeHumidity_IsbL-0985_RLatLon0.09_PT027H.grib2 2026-04-28 02:49 1.0M
20260428T00Z_MSC_RDPS_RelativeHumidity_IsbL-1000_RLatLon0.09_PT027H.grib2 2026-04-28 02:49 1.0M
20260428T00Z_MSC_RDPS_RelativeHumidity_IsbL-1015_RLatLon0.09_PT027H.grib2 2026-04-28 02:49 1.0M
20260428T00Z_MSC_RDPS_Runoff-Accum_Sfc_RLatLon0.09_PT027H.grib2 2026-04-28 02:49 52K
20260428T00Z_MSC_RDPS_SWEATIndex_Sfc_RLatLon0.09_PT027H.grib2 2026-04-28 02:49 2.4M
20260428T00Z_MSC_RDPS_SeeingIndex_EAtm_RLatLon0.09_PT027H.grib2 2026-04-28 02:49 1.0M
20260428T00Z_MSC_RDPS_SensibleHeatNetFlux_Sfc_RLatLon0.09_PT027H.grib2 2026-04-28 02:49 290K
20260428T00Z_MSC_RDPS_ShowalterIndex_IsbL-0500_RLatLon0.09_PT027H.grib2 2026-04-28 02:49 2.6M
20260428T00Z_MSC_RDPS_SkyTransparencyIndex_EAtm_RLatLon0.09_PT027H.grib2 2026-04-28 02:49 688K
20260428T00Z_MSC_RDPS_Snow-Accum1h_Sfc_RLatLon0.09_PT027H.grib2 2026-04-28 02:49 468K
20260428T00Z_MSC_RDPS_Snow-Accum3h_Sfc_RLatLon0.09_PT027H.grib2 2026-04-28 02:49 469K
20260428T00Z_MSC_RDPS_Snow-Accum_Sfc_RLatLon0.09_PT027H.grib2 2026-04-28 02:49 732K
20260428T00Z_MSC_RDPS_SnowDensity_Sfc_RLatLon0.09_PT027H.grib2 2026-04-28 02:49 181K
20260428T00Z_MSC_RDPS_SnowDepth_Sfc_RLatLon0.09_PT027H.grib2 2026-04-28 02:49 696K
20260428T00Z_MSC_RDPS_SoilTemp_DBS-0to10cm_RLatLon0.09_PT027H.grib2 2026-04-28 02:49 227K
20260428T00Z_MSC_RDPS_SoilTemp_Sfc_RLatLon0.09_PT027H.grib2 2026-04-28 02:49 261K
20260428T00Z_MSC_RDPS_SoilVolumetricIceContent_Sfc_RLatLon0.09_PT027H.grib2 2026-04-28 02:49 166K
20260428T00Z_MSC_RDPS_SoilVolumetricWaterContent_DBS-0to10cm_RLatLon0.09_PT027H.grib2 2026-04-28 02:49 263K
20260428T00Z_MSC_RDPS_SoilVolumetricWaterContent_DBS-0to1cm_RLatLon0.09_PT027H.grib2 2026-04-28 02:49 335K
20260428T00Z_MSC_RDPS_SpecificHumidity_AGL-120m_RLatLon0.09_PT027H.grib2 2026-04-28 02:49 476K
20260428T00Z_MSC_RDPS_SpecificHumidity_AGL-2m_RLatLon0.09_PT027H.grib2 2026-04-28 02:49 639K
20260428T00Z_MSC_RDPS_SpecificHumidity_AGL-40m_RLatLon0.09_PT027H.grib2 2026-04-28 02:49 481K
20260428T00Z_MSC_RDPS_SpecificHumidity_AGL-80m_RLatLon0.09_PT027H.grib2 2026-04-28 02:49 477K
20260428T00Z_MSC_RDPS_SpecificHumidity_IsbL-0001_RLatLon0.09_PT027H.grib2 2026-04-28 02:49 337K
20260428T00Z_MSC_RDPS_SpecificHumidity_IsbL-0005_RLatLon0.09_PT027H.grib2 2026-04-28 02:49 360K
20260428T00Z_MSC_RDPS_SpecificHumidity_IsbL-0010_RLatLon0.09_PT027H.grib2 2026-04-28 02:49 400K
20260428T00Z_MSC_RDPS_SpecificHumidity_IsbL-0020_RLatLon0.09_PT027H.grib2 2026-04-28 02:49 390K
20260428T00Z_MSC_RDPS_SpecificHumidity_IsbL-0030_RLatLon0.09_PT027H.grib2 2026-04-28 02:49 372K
20260428T00Z_MSC_RDPS_SpecificHumidity_IsbL-0050_RLatLon0.09_PT027H.grib2 2026-04-28 02:49 465K
20260428T00Z_MSC_RDPS_SpecificHumidity_IsbL-0100_RLatLon0.09_PT027H.grib2 2026-04-28 02:49 453K
20260428T00Z_MSC_RDPS_SpecificHumidity_IsbL-0150_RLatLon0.09_PT027H.grib2 2026-04-28 02:49 459K
20260428T00Z_MSC_RDPS_SpecificHumidity_IsbL-0175_RLatLon0.09_PT027H.grib2 2026-04-28 02:49 444K
20260428T00Z_MSC_RDPS_SpecificHumidity_IsbL-0200_RLatLon0.09_PT027H.grib2 2026-04-28 02:49 455K
20260428T00Z_MSC_RDPS_SpecificHumidity_IsbL-0225_RLatLon0.09_PT027H.grib2 2026-04-28 02:49 457K
20260428T00Z_MSC_RDPS_SpecificHumidity_IsbL-0250_RLatLon0.09_PT027H.grib2 2026-04-28 02:49 557K
20260428T00Z_MSC_RDPS_SpecificHumidity_IsbL-0275_RLatLon0.09_PT027H.grib2 2026-04-28 02:49 475K
20260428T00Z_MSC_RDPS_SpecificHumidity_IsbL-0300_RLatLon0.09_PT027H.grib2 2026-04-28 02:49 573K
20260428T00Z_MSC_RDPS_SpecificHumidity_IsbL-0350_RLatLon0.09_PT027H.grib2 2026-04-28 02:49 541K
20260428T00Z_MSC_RDPS_SpecificHumidity_IsbL-0400_RLatLon0.09_PT027H.grib2 2026-04-28 02:49 523K
20260428T00Z_MSC_RDPS_SpecificHumidity_IsbL-0450_RLatLon0.09_PT027H.grib2 2026-04-28 02:49 577K
20260428T00Z_MSC_RDPS_SpecificHumidity_IsbL-0500_RLatLon0.09_PT027H.grib2 2026-04-28 02:49 514K
20260428T00Z_MSC_RDPS_SpecificHumidity_IsbL-0550_RLatLon0.09_PT027H.grib2 2026-04-28 02:49 586K
20260428T00Z_MSC_RDPS_SpecificHumidity_IsbL-0600_RLatLon0.09_PT027H.grib2 2026-04-28 02:49 636K
20260428T00Z_MSC_RDPS_SpecificHumidity_IsbL-0650_RLatLon0.09_PT027H.grib2 2026-04-28 02:49 552K
20260428T00Z_MSC_RDPS_SpecificHumidity_IsbL-0700_RLatLon0.09_PT027H.grib2 2026-04-28 02:49 596K
20260428T00Z_MSC_RDPS_SpecificHumidity_IsbL-0750_RLatLon0.09_PT027H.grib2 2026-04-28 02:49 649K
20260428T00Z_MSC_RDPS_SpecificHumidity_IsbL-0800_RLatLon0.09_PT027H.grib2 2026-04-28 02:49 725K
20260428T00Z_MSC_RDPS_SpecificHumidity_IsbL-0850_RLatLon0.09_PT027H.grib2 2026-04-28 02:49 794K
20260428T00Z_MSC_RDPS_SpecificHumidity_IsbL-0875_RLatLon0.09_PT027H.grib2 2026-04-28 02:49 819K
20260428T00Z_MSC_RDPS_SpecificHumidity_IsbL-0900_RLatLon0.09_PT027H.grib2 2026-04-28 02:49 833K
20260428T00Z_MSC_RDPS_SpecificHumidity_IsbL-0925_RLatLon0.09_PT027H.grib2 2026-04-28 02:49 836K
20260428T00Z_MSC_RDPS_SpecificHumidity_IsbL-0950_RLatLon0.09_PT027H.grib2 2026-04-28 02:49 833K
20260428T00Z_MSC_RDPS_SpecificHumidity_IsbL-0970_RLatLon0.09_PT027H.grib2 2026-04-28 02:49 819K
20260428T00Z_MSC_RDPS_SpecificHumidity_IsbL-0985_RLatLon0.09_PT027H.grib2 2026-04-28 02:49 669K
20260428T00Z_MSC_RDPS_SpecificHumidity_IsbL-1000_RLatLon0.09_PT027H.grib2 2026-04-28 02:49 661K
20260428T00Z_MSC_RDPS_SpecificHumidity_IsbL-1015_RLatLon0.09_PT027H.grib2 2026-04-28 02:49 652K
20260428T00Z_MSC_RDPS_SpecificHumidity_Sfc_RLatLon0.09_PT027H.grib2 2026-04-28 02:49 295K
20260428T00Z_MSC_RDPS_StormRelativeHelicity_EtaL-10000_RLatLon0.09_PT027H.grib2 2026-04-28 02:49 1.1M
20260428T00Z_MSC_RDPS_StormSeverityIndex_EtaL-10000_RLatLon0.09_PT027H.grib2 2026-04-28 02:49 1.1M
20260428T00Z_MSC_RDPS_Thickness_IsbL-0850to0700_RLatLon0.09_PT027H.grib2 2026-04-28 02:49 175K
20260428T00Z_MSC_RDPS_Thickness_IsbL-1000to0500_RLatLon0.09_PT027H.grib2 2026-04-28 02:49 198K
20260428T00Z_MSC_RDPS_Thickness_IsbL-1000to0850_RLatLon0.09_PT027H.grib2 2026-04-28 02:49 183K
20260428T00Z_MSC_RDPS_TotalCloudCover_Sfc_RLatLon0.09_PT027H.grib2 2026-04-28 02:49 641K
20260428T00Z_MSC_RDPS_TotalTotalsIndex_Sfc_RLatLon0.09_PT027H.grib2 2026-04-28 02:49 2.4M
20260428T00Z_MSC_RDPS_UVIndex-ClearSky_Sfc_RLatLon0.09_PT027H.grib2 2026-04-28 02:49 94K
20260428T00Z_MSC_RDPS_UVIndex_Sfc_RLatLon0.09_PT027H.grib2 2026-04-28 02:49 187K
20260428T00Z_MSC_RDPS_UpwardLongwaveRadiationFlux_NTAtm_RLatLon0.09_PT027H.grib2 2026-04-28 02:49 488K
20260428T00Z_MSC_RDPS_UpwardShortwaveRadiationFlux_NTAtm_RLatLon0.09_PT027H.grib2 2026-04-28 02:49 189K
20260428T00Z_MSC_RDPS_VerticalVelocity_IsbL-0250_RLatLon0.09_PT027H.grib2 2026-04-28 02:49 558K
20260428T00Z_MSC_RDPS_VerticalVelocity_IsbL-0500_RLatLon0.09_PT027H.grib2 2026-04-28 02:49 546K
20260428T00Z_MSC_RDPS_VerticalVelocity_IsbL-0700_RLatLon0.09_PT027H.grib2 2026-04-28 02:49 590K
20260428T00Z_MSC_RDPS_VerticalVelocity_IsbL-0850_RLatLon0.09_PT027H.grib2 2026-04-28 02:49 702K
20260428T00Z_MSC_RDPS_VerticalWindShear_EtaL-6500_RLatLon0.09_PT027H.grib2 2026-04-28 02:49 1.2M
20260428T00Z_MSC_RDPS_WindChill_Sfc_RLatLon0.09_PT027H.grib2 2026-04-28 02:49 1.1M
20260428T00Z_MSC_RDPS_WindDir_AGL-10m_RLatLon0.09_PT027H.grib2 2026-04-28 02:49 956K
20260428T00Z_MSC_RDPS_WindDir_AGL-120m_RLatLon0.09_PT027H.grib2 2026-04-28 02:49 596K
20260428T00Z_MSC_RDPS_WindDir_AGL-40m_RLatLon0.09_PT027H.grib2 2026-04-28 02:49 627K
20260428T00Z_MSC_RDPS_WindDir_AGL-80m_RLatLon0.09_PT027H.grib2 2026-04-28 02:49 607K
20260428T00Z_MSC_RDPS_WindDir_IsbL-0001_RLatLon0.09_PT027H.grib2 2026-04-28 02:49 318K
20260428T00Z_MSC_RDPS_WindDir_IsbL-0005_RLatLon0.09_PT027H.grib2 2026-04-28 02:49 366K
20260428T00Z_MSC_RDPS_WindDir_IsbL-0010_RLatLon0.09_PT027H.grib2 2026-04-28 02:49 397K
20260428T00Z_MSC_RDPS_WindDir_IsbL-0020_RLatLon0.09_PT027H.grib2 2026-04-28 02:49 416K
20260428T00Z_MSC_RDPS_WindDir_IsbL-0030_RLatLon0.09_PT027H.grib2 2026-04-28 02:49 432K
20260428T00Z_MSC_RDPS_WindDir_IsbL-0050_RLatLon0.09_PT027H.grib2 2026-04-28 02:49 428K
20260428T00Z_MSC_RDPS_WindDir_IsbL-0100_RLatLon0.09_PT027H.grib2 2026-04-28 02:49 423K
20260428T00Z_MSC_RDPS_WindDir_IsbL-0150_RLatLon0.09_PT027H.grib2 2026-04-28 02:49 416K
20260428T00Z_MSC_RDPS_WindDir_IsbL-0175_RLatLon0.09_PT027H.grib2 2026-04-28 02:49 435K
20260428T00Z_MSC_RDPS_WindDir_IsbL-0200_RLatLon0.09_PT027H.grib2 2026-04-28 02:49 446K
20260428T00Z_MSC_RDPS_WindDir_IsbL-0225_RLatLon0.09_PT027H.grib2 2026-04-28 02:49 449K
20260428T00Z_MSC_RDPS_WindDir_IsbL-0250_RLatLon0.09_PT027H.grib2 2026-04-28 02:49 454K
20260428T00Z_MSC_RDPS_WindDir_IsbL-0275_RLatLon0.09_PT027H.grib2 2026-04-28 02:49 476K
20260428T00Z_MSC_RDPS_WindDir_IsbL-0300_RLatLon0.09_PT027H.grib2 2026-04-28 02:49 474K
20260428T00Z_MSC_RDPS_WindDir_IsbL-0350_RLatLon0.09_PT027H.grib2 2026-04-28 02:49 495K
20260428T00Z_MSC_RDPS_WindDir_IsbL-0400_RLatLon0.09_PT027H.grib2 2026-04-28 02:49 515K
20260428T00Z_MSC_RDPS_WindDir_IsbL-0450_RLatLon0.09_PT027H.grib2 2026-04-28 02:49 533K
20260428T00Z_MSC_RDPS_WindDir_IsbL-0500_RLatLon0.09_PT027H.grib2 2026-04-28 02:49 546K
20260428T00Z_MSC_RDPS_WindDir_IsbL-0550_RLatLon0.09_PT027H.grib2 2026-04-28 02:49 565K
20260428T00Z_MSC_RDPS_WindDir_IsbL-0600_RLatLon0.09_PT027H.grib2 2026-04-28 02:49 594K
20260428T00Z_MSC_RDPS_WindDir_IsbL-0650_RLatLon0.09_PT027H.grib2 2026-04-28 02:49 629K
20260428T00Z_MSC_RDPS_WindDir_IsbL-0700_RLatLon0.09_PT027H.grib2 2026-04-28 02:49 668K
20260428T00Z_MSC_RDPS_WindDir_IsbL-0750_RLatLon0.09_PT027H.grib2 2026-04-28 02:49 712K
20260428T00Z_MSC_RDPS_WindDir_IsbL-0800_RLatLon0.09_PT027H.grib2 2026-04-28 02:49 778K
20260428T00Z_MSC_RDPS_WindDir_IsbL-0850_RLatLon0.09_PT027H.grib2 2026-04-28 02:49 857K
20260428T00Z_MSC_RDPS_WindDir_IsbL-0875_RLatLon0.09_PT027H.grib2 2026-04-28 02:49 885K
20260428T00Z_MSC_RDPS_WindDir_IsbL-0900_RLatLon0.09_PT027H.grib2 2026-04-28 02:49 900K
20260428T00Z_MSC_RDPS_WindDir_IsbL-0925_RLatLon0.09_PT027H.grib2 2026-04-28 02:49 910K
20260428T00Z_MSC_RDPS_WindDir_IsbL-0950_RLatLon0.09_PT027H.grib2 2026-04-28 02:49 908K
20260428T00Z_MSC_RDPS_WindDir_IsbL-0970_RLatLon0.09_PT027H.grib2 2026-04-28 02:49 913K
20260428T00Z_MSC_RDPS_WindDir_IsbL-0985_RLatLon0.09_PT027H.grib2 2026-04-28 02:49 919K
20260428T00Z_MSC_RDPS_WindDir_IsbL-1000_RLatLon0.09_PT027H.grib2 2026-04-28 02:49 932K
20260428T00Z_MSC_RDPS_WindDir_IsbL-1015_RLatLon0.09_PT027H.grib2 2026-04-28 02:49 948K
20260428T00Z_MSC_RDPS_WindGust-Max_AGL-10m_RLatLon0.09_PT027H.grib2 2026-04-28 02:49 946K
20260428T00Z_MSC_RDPS_WindGust-Min_AGL-10m_RLatLon0.09_PT027H.grib2 2026-04-28 02:49 965K
20260428T00Z_MSC_RDPS_WindGust_AGL-10m_RLatLon0.09_PT027H.grib2 2026-04-28 02:49 1.0M
20260428T00Z_MSC_RDPS_WindSpeed_AGL-10m_RLatLon0.09_PT027H.grib2 2026-04-28 02:49 828K
20260428T00Z_MSC_RDPS_WindSpeed_AGL-120m_RLatLon0.09_PT027H.grib2 2026-04-28 02:49 544K
20260428T00Z_MSC_RDPS_WindSpeed_AGL-40m_RLatLon0.09_PT027H.grib2 2026-04-28 02:49 535K
20260428T00Z_MSC_RDPS_WindSpeed_AGL-80m_RLatLon0.09_PT027H.grib2 2026-04-28 02:49 545K
20260428T00Z_MSC_RDPS_WindSpeed_IsbL-0001_RLatLon0.09_PT027H.grib2 2026-04-28 02:49 254K
20260428T00Z_MSC_RDPS_WindSpeed_IsbL-0005_RLatLon0.09_PT027H.grib2 2026-04-28 02:49 300K
20260428T00Z_MSC_RDPS_WindSpeed_IsbL-0010_RLatLon0.09_PT027H.grib2 2026-04-28 02:49 314K
20260428T00Z_MSC_RDPS_WindSpeed_IsbL-0020_RLatLon0.09_PT027H.grib2 2026-04-28 02:49 329K
20260428T00Z_MSC_RDPS_WindSpeed_IsbL-0030_RLatLon0.09_PT027H.grib2 2026-04-28 02:49 324K
20260428T00Z_MSC_RDPS_WindSpeed_IsbL-0050_RLatLon0.09_PT027H.grib2 2026-04-28 02:49 356K
20260428T00Z_MSC_RDPS_WindSpeed_IsbL-0100_RLatLon0.09_PT027H.grib2 2026-04-28 02:49 450K
20260428T00Z_MSC_RDPS_WindSpeed_IsbL-0150_RLatLon0.09_PT027H.grib2 2026-04-28 02:49 390K
20260428T00Z_MSC_RDPS_WindSpeed_IsbL-0175_RLatLon0.09_PT027H.grib2 2026-04-28 02:49 437K
20260428T00Z_MSC_RDPS_WindSpeed_IsbL-0200_RLatLon0.09_PT027H.grib2 2026-04-28 02:49 455K
20260428T00Z_MSC_RDPS_WindSpeed_IsbL-0225_RLatLon0.09_PT027H.grib2 2026-04-28 02:49 460K
20260428T00Z_MSC_RDPS_WindSpeed_IsbL-0250_RLatLon0.09_PT027H.grib2 2026-04-28 02:49 465K
20260428T00Z_MSC_RDPS_WindSpeed_IsbL-0275_RLatLon0.09_PT027H.grib2 2026-04-28 02:49 484K
20260428T00Z_MSC_RDPS_WindSpeed_IsbL-0300_RLatLon0.09_PT027H.grib2 2026-04-28 02:49 482K
20260428T00Z_MSC_RDPS_WindSpeed_IsbL-0350_RLatLon0.09_PT027H.grib2 2026-04-28 02:49 489K
20260428T00Z_MSC_RDPS_WindSpeed_IsbL-0400_RLatLon0.09_PT027H.grib2 2026-04-28 02:49 473K
20260428T00Z_MSC_RDPS_WindSpeed_IsbL-0450_RLatLon0.09_PT027H.grib2 2026-04-28 02:49 472K
20260428T00Z_MSC_RDPS_WindSpeed_IsbL-0500_RLatLon0.09_PT027H.grib2 2026-04-28 02:49 470K
20260428T00Z_MSC_RDPS_WindSpeed_IsbL-0550_RLatLon0.09_PT027H.grib2 2026-04-28 02:49 587K
20260428T00Z_MSC_RDPS_WindSpeed_IsbL-0600_RLatLon0.09_PT027H.grib2 2026-04-28 02:49 594K
20260428T00Z_MSC_RDPS_WindSpeed_IsbL-0650_RLatLon0.09_PT027H.grib2 2026-04-28 02:49 612K
20260428T00Z_MSC_RDPS_WindSpeed_IsbL-0700_RLatLon0.09_PT027H.grib2 2026-04-28 02:49 633K
20260428T00Z_MSC_RDPS_WindSpeed_IsbL-0750_RLatLon0.09_PT027H.grib2 2026-04-28 02:49 661K
20260428T00Z_MSC_RDPS_WindSpeed_IsbL-0800_RLatLon0.09_PT027H.grib2 2026-04-28 02:49 704K
20260428T00Z_MSC_RDPS_WindSpeed_IsbL-0850_RLatLon0.09_PT027H.grib2 2026-04-28 02:49 761K
20260428T00Z_MSC_RDPS_WindSpeed_IsbL-0875_RLatLon0.09_PT027H.grib2 2026-04-28 02:49 827K
20260428T00Z_MSC_RDPS_WindSpeed_IsbL-0900_RLatLon0.09_PT027H.grib2 2026-04-28 02:49 842K
20260428T00Z_MSC_RDPS_WindSpeed_IsbL-0925_RLatLon0.09_PT027H.grib2 2026-04-28 02:49 854K
20260428T00Z_MSC_RDPS_WindSpeed_IsbL-0950_RLatLon0.09_PT027H.grib2 2026-04-28 02:49 854K
20260428T00Z_MSC_RDPS_WindSpeed_IsbL-0970_RLatLon0.09_PT027H.grib2 2026-04-28 02:49 852K
20260428T00Z_MSC_RDPS_WindSpeed_IsbL-0985_RLatLon0.09_PT027H.grib2 2026-04-28 02:49 848K
20260428T00Z_MSC_RDPS_WindSpeed_IsbL-1000_RLatLon0.09_PT027H.grib2 2026-04-28 02:49 840K
20260428T00Z_MSC_RDPS_WindSpeed_IsbL-1015_RLatLon0.09_PT027H.grib2 2026-04-28 02:49 829K
20260428T00Z_MSC_RDPS_WindU_AGL-10m_RLatLon0.09_PT027H.grib2 2026-04-28 02:49 375K
20260428T00Z_MSC_RDPS_WindU_AGL-120m_RLatLon0.09_PT027H.grib2 2026-04-28 02:49 413K
20260428T00Z_MSC_RDPS_WindU_AGL-40m_RLatLon0.09_PT027H.grib2 2026-04-28 02:49 416K
20260428T00Z_MSC_RDPS_WindU_AGL-80m_RLatLon0.09_PT027H.grib2 2026-04-28 02:49 415K
20260428T00Z_MSC_RDPS_WindU_IsbL-0001_RLatLon0.09_PT027H.grib2 2026-04-28 02:49 294K
20260428T00Z_MSC_RDPS_WindU_IsbL-0005_RLatLon0.09_PT027H.grib2 2026-04-28 02:49 336K
20260428T00Z_MSC_RDPS_WindU_IsbL-0010_RLatLon0.09_PT027H.grib2 2026-04-28 02:49 344K
20260428T00Z_MSC_RDPS_WindU_IsbL-0020_RLatLon0.09_PT027H.grib2 2026-04-28 02:49 356K
20260428T00Z_MSC_RDPS_WindU_IsbL-0030_RLatLon0.09_PT027H.grib2 2026-04-28 02:49 354K
20260428T00Z_MSC_RDPS_WindU_IsbL-0050_RLatLon0.09_PT027H.grib2 2026-04-28 02:49 383K
20260428T00Z_MSC_RDPS_WindU_IsbL-0100_RLatLon0.09_PT027H.grib2 2026-04-28 02:49 345K
20260428T00Z_MSC_RDPS_WindU_IsbL-0150_RLatLon0.09_PT027H.grib2 2026-04-28 02:49 406K
20260428T00Z_MSC_RDPS_WindU_IsbL-0175_RLatLon0.09_PT027H.grib2 2026-04-28 02:49 430K
20260428T00Z_MSC_RDPS_WindU_IsbL-0200_RLatLon0.09_PT027H.grib2 2026-04-28 02:49 347K
20260428T00Z_MSC_RDPS_WindU_IsbL-0225_RLatLon0.09_PT027H.grib2 2026-04-28 02:49 351K
20260428T00Z_MSC_RDPS_WindU_IsbL-0250_RLatLon0.09_PT027H.grib2 2026-04-28 02:49 353K
20260428T00Z_MSC_RDPS_WindU_IsbL-0275_RLatLon0.09_PT027H.grib2 2026-04-28 02:49 368K
20260428T00Z_MSC_RDPS_WindU_IsbL-0300_RLatLon0.09_PT027H.grib2 2026-04-28 02:49 365K
20260428T00Z_MSC_RDPS_WindU_IsbL-0350_RLatLon0.09_PT027H.grib2 2026-04-28 02:49 476K
20260428T00Z_MSC_RDPS_WindU_IsbL-0400_RLatLon0.09_PT027H.grib2 2026-04-28 02:49 475K
20260428T00Z_MSC_RDPS_WindU_IsbL-0450_RLatLon0.09_PT027H.grib2 2026-04-28 02:49 474K
20260428T00Z_MSC_RDPS_WindU_IsbL-0500_RLatLon0.09_PT027H.grib2 2026-04-28 02:49 475K
20260428T00Z_MSC_RDPS_WindU_IsbL-0550_RLatLon0.09_PT027H.grib2 2026-04-28 02:49 456K
20260428T00Z_MSC_RDPS_WindU_IsbL-0600_RLatLon0.09_PT027H.grib2 2026-04-28 02:49 464K
20260428T00Z_MSC_RDPS_WindU_IsbL-0650_RLatLon0.09_PT027H.grib2 2026-04-28 02:49 481K
20260428T00Z_MSC_RDPS_WindU_IsbL-0700_RLatLon0.09_PT027H.grib2 2026-04-28 02:49 501K
20260428T00Z_MSC_RDPS_WindU_IsbL-0750_RLatLon0.09_PT027H.grib2 2026-04-28 02:49 526K
20260428T00Z_MSC_RDPS_WindU_IsbL-0800_RLatLon0.09_PT027H.grib2 2026-04-28 02:49 566K
20260428T00Z_MSC_RDPS_WindU_IsbL-0850_RLatLon0.09_PT027H.grib2 2026-04-28 02:49 617K
20260428T00Z_MSC_RDPS_WindU_IsbL-0875_RLatLon0.09_PT027H.grib2 2026-04-28 02:49 634K
20260428T00Z_MSC_RDPS_WindU_IsbL-0900_RLatLon0.09_PT027H.grib2 2026-04-28 02:49 645K
20260428T00Z_MSC_RDPS_WindU_IsbL-0925_RLatLon0.09_PT027H.grib2 2026-04-28 02:49 652K
20260428T00Z_MSC_RDPS_WindU_IsbL-0950_RLatLon0.09_PT027H.grib2 2026-04-28 02:49 648K
20260428T00Z_MSC_RDPS_WindU_IsbL-0970_RLatLon0.09_PT027H.grib2 2026-04-28 02:49 647K
20260428T00Z_MSC_RDPS_WindU_IsbL-0985_RLatLon0.09_PT027H.grib2 2026-04-28 02:49 643K
20260428T00Z_MSC_RDPS_WindU_IsbL-1000_RLatLon0.09_PT027H.grib2 2026-04-28 02:49 638K
20260428T00Z_MSC_RDPS_WindU_IsbL-1015_RLatLon0.09_PT027H.grib2 2026-04-28 02:49 630K
20260428T00Z_MSC_RDPS_WindV_AGL-10m_RLatLon0.09_PT027H.grib2 2026-04-28 02:49 426K
20260428T00Z_MSC_RDPS_WindV_AGL-120m_RLatLon0.09_PT027H.grib2 2026-04-28 02:49 529K
20260428T00Z_MSC_RDPS_WindV_AGL-40m_RLatLon0.09_PT027H.grib2 2026-04-28 02:49 532K
20260428T00Z_MSC_RDPS_WindV_AGL-80m_RLatLon0.09_PT027H.grib2 2026-04-28 02:49 530K
20260428T00Z_MSC_RDPS_WindV_IsbL-0001_RLatLon0.09_PT027H.grib2 2026-04-28 02:49 245K
20260428T00Z_MSC_RDPS_WindV_IsbL-0005_RLatLon0.09_PT027H.grib2 2026-04-28 02:49 291K
20260428T00Z_MSC_RDPS_WindV_IsbL-0010_RLatLon0.09_PT027H.grib2 2026-04-28 02:49 304K
20260428T00Z_MSC_RDPS_WindV_IsbL-0020_RLatLon0.09_PT027H.grib2 2026-04-28 02:49 320K
20260428T00Z_MSC_RDPS_WindV_IsbL-0030_RLatLon0.09_PT027H.grib2 2026-04-28 02:49 319K
20260428T00Z_MSC_RDPS_WindV_IsbL-0050_RLatLon0.09_PT027H.grib2 2026-04-28 02:49 349K
20260428T00Z_MSC_RDPS_WindV_IsbL-0100_RLatLon0.09_PT027H.grib2 2026-04-28 02:49 436K
20260428T00Z_MSC_RDPS_WindV_IsbL-0150_RLatLon0.09_PT027H.grib2 2026-04-28 02:49 404K
20260428T00Z_MSC_RDPS_WindV_IsbL-0175_RLatLon0.09_PT027H.grib2 2026-04-28 02:49 429K
20260428T00Z_MSC_RDPS_WindV_IsbL-0200_RLatLon0.09_PT027H.grib2 2026-04-28 02:49 346K
20260428T00Z_MSC_RDPS_WindV_IsbL-0225_RLatLon0.09_PT027H.grib2 2026-04-28 02:49 348K
20260428T00Z_MSC_RDPS_WindV_IsbL-0250_RLatLon0.09_PT027H.grib2 2026-04-28 02:49 375K
20260428T00Z_MSC_RDPS_WindV_IsbL-0275_RLatLon0.09_PT027H.grib2 2026-04-28 02:49 389K
20260428T00Z_MSC_RDPS_WindV_IsbL-0300_RLatLon0.09_PT027H.grib2 2026-04-28 02:49 387K
20260428T00Z_MSC_RDPS_WindV_IsbL-0350_RLatLon0.09_PT027H.grib2 2026-04-28 02:49 371K
20260428T00Z_MSC_RDPS_WindV_IsbL-0400_RLatLon0.09_PT027H.grib2 2026-04-28 02:49 372K
20260428T00Z_MSC_RDPS_WindV_IsbL-0450_RLatLon0.09_PT027H.grib2 2026-04-28 02:49 476K
20260428T00Z_MSC_RDPS_WindV_IsbL-0500_RLatLon0.09_PT027H.grib2 2026-04-28 02:49 475K
20260428T00Z_MSC_RDPS_WindV_IsbL-0550_RLatLon0.09_PT027H.grib2 2026-04-28 02:49 473K
20260428T00Z_MSC_RDPS_WindV_IsbL-0600_RLatLon0.09_PT027H.grib2 2026-04-28 02:49 480K
20260428T00Z_MSC_RDPS_WindV_IsbL-0650_RLatLon0.09_PT027H.grib2 2026-04-28 02:49 495K
20260428T00Z_MSC_RDPS_WindV_IsbL-0700_RLatLon0.09_PT027H.grib2 2026-04-28 02:49 513K
20260428T00Z_MSC_RDPS_WindV_IsbL-0750_RLatLon0.09_PT027H.grib2 2026-04-28 02:49 537K
20260428T00Z_MSC_RDPS_WindV_IsbL-0800_RLatLon0.09_PT027H.grib2 2026-04-28 02:49 573K
20260428T00Z_MSC_RDPS_WindV_IsbL-0850_RLatLon0.09_PT027H.grib2 2026-04-28 02:49 621K
20260428T00Z_MSC_RDPS_WindV_IsbL-0875_RLatLon0.09_PT027H.grib2 2026-04-28 02:49 638K
20260428T00Z_MSC_RDPS_WindV_IsbL-0900_RLatLon0.09_PT027H.grib2 2026-04-28 02:49 650K
20260428T00Z_MSC_RDPS_WindV_IsbL-0925_RLatLon0.09_PT027H.grib2 2026-04-28 02:49 650K
20260428T00Z_MSC_RDPS_WindV_IsbL-0950_RLatLon0.09_PT027H.grib2 2026-04-28 02:49 650K
20260428T00Z_MSC_RDPS_WindV_IsbL-0970_RLatLon0.09_PT027H.grib2 2026-04-28 02:49 790K
20260428T00Z_MSC_RDPS_WindV_IsbL-0985_RLatLon0.09_PT027H.grib2 2026-04-28 02:49 784K
20260428T00Z_MSC_RDPS_WindV_IsbL-1000_RLatLon0.09_PT027H.grib2 2026-04-28 02:49 777K
20260428T00Z_MSC_RDPS_WindV_IsbL-1015_RLatLon0.09_PT027H.grib2 2026-04-28 02:49 816K